Regional Weather Roundup
Issued by NWS

Home | Current Version | Previous Version | Graphics & Text | Print | Product List | Glossary On
Versions: 1 2 3 4 5 6 7 8 9 10 11 12 13 14 15 16 17 18 19 20 21 22 23 24 25 26 27 28 29 30 31 32 33 34 35 36 37 38 39
974
ASUS44 KLIX 021505
RWRLA
LOUISIANA WEATHER ROUNDUP
NATIONAL WEATHER SERVICE NEW ORLEANS LA
1000 AM CDT TUE SEP 02 2014

NOTE: "FAIR" INDICATES FEW OR NO CLOUDS BELOW 12,000 FEET WITH NO
      SIGNIFICANT WEATHER AND/OR OBSTRUCTIONS TO VISIBILITY.
      SKY/WX - SKY CONDITION AND SIGNIFICANT WEATHER.
      TMP - AIR TEMPERATURE.    DP   - DEWPOINT TEMPERATURE.
      RH  - RELATIVE HUMIDITY.  PRES - PRESSURE.
      HX  - HEAT INDEX.         WCI  - WIND CHILL INDEX.

*  THESE STATIONS ARE NOT NWS OR FAA STATIONS AND ARE NOT UNDER
   NWS QUALITY CONTROL.

LAZ040-048-061>063-065-066-069-021600-
SOUTHEAST LOUISIANA

CITY           SKY/WX    TMP DP  RH WIND       PRES   REMARKS
N.O. AUDUBON   NOT AVBL
N.O. INTL ARPT PTSUNNY   87  76  69 S12       30.06S HX  97
N.O. LAKEFRONT MOSUNNY   84  76  76 S9        30.07S
N.O. DOWNTOWN* FAIR      86  73  66 S6        30.07S
SLIDELL        PTSUNNY   84  79  85 SE7       30.07S HX  96
BATON ROUGE    MOSUNNY   87  76  69 S8        30.06R HX  97
BOOTHVILLE     SUNNY     87  77  72 SE6       30.08R HX  99
BELLE CHASSE   PTSUNNY   86  74  67 S8        30.06S
BOGALUSA*      PTSUNNY   83  77  82 S6        30.09S
GALLIANO*      NOT AVBL
NEW ROADS*     FAIR      84  77  78 S8        30.07R
GONZALES*      FAIR      86  80  80 S8        30.06R HX 101
HAMMOND*       PTSUNNY   86  75  70 S7        30.09R HX  95
HOUMA*         NOT AVBL
PORT FOURCHON* PTSUNNY   86  75  70 S9        30.08F HX  95

$$

LAZ041-044-053-054-021600-
SOUTHWEST LOUISIANA

CITY           SKY/WX    TMP DP  RH WIND       PRES   REMARKS
LAKE CHARLES   PTSUNNY   86  76  71 S12G20    30.02R HX  96
LAFAYETTE      MOSUNNY   85  77  77 SE9       30.05R HX  95
PATTERSON      MOSUNNY   88  77  70 S7        30.08S HX 100
SALT POINT       N/A     90  78  68 SE8       30.04S HX 104
NEW IBERIA     MOSUNNY   86  78  77 S9        30.05S HX  98
CHENAULT AIRPK PTSUNNY   86  75  70 S13G20    30.03R HX  95

$$

LAZ027-028-021600-
CENTRAL LOUISIANA

CITY           SKY/WX    TMP DP  RH WIND       PRES   REMARKS
FORT POLK      PTSUNNY   82  77  83 S13       30.04S
ALEXANDRIA INT PTSUNNY   83  79  88 SE8       30.03S
ALEXANDRIA     MOSUNNY   85  77  77 S9        30.05S HX  95

$$

LAZ001-002-021600-
NORTHWEST LOUISIANA

CITY           SKY/WX    TMP DP  RH WIND       PRES   REMARKS
SHREVEPORT     MOSUNNY   85  75  72 SW12      30.02R
BARKSDALE AFB  MOSUNNY   84  75  73 S9        30.03R
DTN SHREVEPORT PTSUNNY   84  75  74 S12       30.03R

$$

LAZ014-016-021600-
NORTHEAST LOUISIANA

CITY           SKY/WX    TMP DP  RH WIND       PRES   REMARKS
MONROE         CLOUDY    82  75  79 S10       30.06R
TALLULAH       PTSUNNY   84  77  79 S8        30.07R

$$




USA.gov is the U.S. government's official web portal to all federal, state and local government web resources and services.